Theta_e
326 323 322 322 321 321 321 317 314 317 318 312 312 315 310 309 309 307 307 307 306 306 306 306 306 306 306 306 306 306 306 305 305 305 306 306 306 307 307 308 308 308 308 308 308 308 308 308 308 308 308 309 309 310 310 310 310 310 310 310 310 310 310 309 309 307 307 306 306 305 305 305 304 303 303 303 302 301 301 300 300 300 300 300 301
327 326 324 323 321 321 320 318 316 319 318 313 313 315 313 312 310 308 307 307 307 307 306 307 307 306 306 306 306 306 306 306 306 306 306 306 306 307 307 307 308 308 308 308 307 308 308 308 308 308 307 307 308 308 309 309 309 309 310 310 310 310 310 310 310 309 308 308 307 306 305 305 304 304 304 303 302 302 302 301 300 300 300 299 300
328 327 326 324 323 322 321 319 318 319 319 315 313 313 315 315 312 310 310 310 310 309 307 307 307 307 307 307 306 307 306 306 306 306 307 306 307 307 307 307 308 308 308 308 308 308 308 308 308 308 308 308 307 308 308 308 308 308 309 309 309 309 310 310 310 310 309 309 308 307 306 305 305 304 303 302 302 301 300 300 300 300 300 299 299
327 327 326 326 325 323 322 320 319 319 319 318 315 313 315 317 314 313 313 313 314 315 313 311 309 308 308 308 308 308 307 307 307 307 307 308 308 308 309 309 309 309 309 309 309 309 309 309 310 309 309 309 308 308 308 308 309 310 310 310 309 309 309 310 310 310 310 309 309 308 307 306 305 304 303 302 301 300 300 300 300 300 299 299 299
325 325 325 325 324 323 322 320 319 318 318 318 317 314 315 317 317 315 314 315 316 317 317 316 315 313 312 311 310 309 309 309 310 310 310 310 310 311 313 314 314 314 313 312 312 312 312 312 313 313 313 313 312 310 309 309 311 313 313 312 310 310 310 310 310 309 309 309 309 308 308 307 306 305 304 303 302 301 301 300 300 300 300 299 299
324 325 324 325 324 323 321 319 318 317 317 318 317 316 316 316 317 317 316 316 316 316 317 318 317 317 316 315 314 313 313 313 314 314 314 314 314 313 314 316 317 317 317 316 316 315 315 315 315 316 317 316 316 315 313 311 311 313 314 313 312 311 310 309 310 310 310 310 309 309 308 307 306 305 304 303 303 302 302 301 301 301 301 301 300
324 325 325 325 324 323 322 319 317 316 317 317 317 317 317 316 317 319 318 317 316 317 317 318 318 318 317 316 316 316 316 317 317 317 316 316 316 315 313 315 317 318 318 318 318 317 317 317 317 318 317 317 317 316 316 314 313 314 314 314 314 313 312 310 310 310 310 310 309 309 309 308 307 305 304 303 302 302 302 303 303 303 303 302 302
324 325 325 325 325 323 322 321 317 316 316 317 317 317 316 316 317 318 319 319 317 317 318 317 317 316 316 317 316 316 316 317 317 317 316 316 316 316 315 315 317 318 318 318 318 318 317 317 317 318 318 317 316 316 316 315 314 314 314 314 314 314 313 311 310 310 310 309 309 309 309 308 307 306 305 304 304 303 303 303 303 304 303 303 302
323 323 323 324 324 323 322 321 319 317 316 316 316 316 317 317 316 316 317 317 317 317 317 317 317 316 316 316 316 316 316 316 317 317 316 316 315 315 315 316 317 318 317 316 316 317 316 316 317 317 317 317 316 315 315 314 313 313 313 313 313 313 312 311 310 310 310 309 309 309 308 307 306 306 306 306 306 305 304 303 302 302 303 303 303
323 323 323 322 322 322 321 321 320 318 317 317 317 317 317 317 317 316 316 316 315 315 316 316 316 315 316 316 316 316 316 315 316 317 317 317 317 317 317 317 318 318 317 316 315 316 316 317 317 316 316 317 316 315 314 313 313 312 312 312 311 311 311 310 309 309 309 308 308 308 307 307 306 306 307 306 305 304 303 302 302 302 302 303 304
322 322 322 322 322 322 322 321 321 320 320 320 319 319 319 318 318 317 317 317 316 315 315 315 315 314 315 316 317 316 316 315 316 317 317 317 317 317 317 318 317 317 317 317 316 316 316 318 318 318 317 317 316 315 315 313 312 312 311 310 310 310 310 309 308 308 308 307 306 306 305 305 305 305 304 304 304 303 302 301 300 300 300 300 301
320 320 321 321 321 321 321 321 321 321 321 321 320 320 319 318 318 317 317 317 317 316 315 315 314 314 315 317 316 315 315 316 316 317 317 317 318 318 318 318 318 318 319 319 318 318 318 318 319 319 319 318 317 316 316 313 311 311 311 310 310 310 310 309 308 308 307 306 305 304 304 303 303 303 303 303 303 302 301 300 299 298 298 297 298
315 316 318 318 318 319 319 319 319 319 319 320 320 319 319 318 318 317 318 318 317 317 316 315 315 315 316 316 316 315 316 317 317 317 317 317 316 316 315 315 315 314 315 315 316 317 318 319 320 319 318 318 318 316 315 313 311 310 310 310 310 309 308 308 308 307 305 304 304 303 303 302 302 302 302 302 301 300 299 298 297 296 296 297 297
311 313 314 315 315 315 315 316 316 317 318 319 320 319 319 318 318 318 318 318 317 316 317 317 316 316 316 316 316 316 317 317 317 315 315 313 312 310 309 308 307 307 307 308 308 310 312 315 317 318 318 318 317 316 314 312 310 310 310 310 309 308 308 308 306 305 304 304 304 303 302 302 302 302 301 301 300 299 297 296 296 295 296 296 296
310 311 311 311 311 311 311 312 313 316 318 319 319 319 318 317 318 318 319 319 318 317 316 317 317 317 317 317 316 317 317 317 315 315 314 312 310 308 307 306 306 306 306 306 306 307 308 311 314 317 317 317 316 314 311 310 310 310 309 309 308 308 307 305 304 304 305 304 303 302 302 302 302 301 301 300 298 297 295 295 295 295 295 295 295
309 309 310 310 309 309 308 308 310 313 316 317 316 316 316 316 316 317 317 318 318 317 317 317 317 317 317 317 317 317 317 317 315 315 314 312 310 308 307 306 305 305 306 306 306 307 309 311 314 315 315 315 313 311 310 310 310 309 308 308 308 306 304 304 304 305 304 303 303 302 302 301 301 300 299 298 296 295 294 294 294 294 294 294 294
308 308 308 309 308 307 307 308 309 310 311 313 313 313 314 314 314 315 315 316 316 316 316 316 317 317 316 317 317 316 316 315 314 313 313 312 310 309 307 305 305 304 305 306 306 307 308 309 311 312 312 312 311 310 309 309 309 308 308 307 306 304 304 304 305 304 304 303 302 302 301 300 299 298 297 295 295 294 294 294 294 293 293 294 294
308 307 308 308 308 307 307 308 309 309 309 310 311 312 312 312 312 312 312 313 313 314 314 315 315 315 314 314 314 313 313 313 312 312 311 311 310 308 307 306 305 305 305 306 306 306 306 307 309 310 311 310 310 309 309 309 308 307 307 305 304 304 304 304 304 304 303 302 301 300 299 298 297 296 295 295 294 294 294 293 293 293 293 293 293
307 307 307 308 308 307 308 309 309 309 309 309 310 309 308 307 308 308 309 310 311 312 312 312 311 310 310 309 309 310 310 310 310 310 310 310 308 307 307 307 307 307 306 306 306 307 307 308 308 309 310 309 308 308 308 308 307 305 305 304 304 304 304 304 303 302 301 300 299 298 297 296 295 295 295 295 294 294 293 293 293 292 292 292 292
306 307 307 307 308 307 308 308 308 309 309 309 308 306 304 304 305 305 305 306 306 306 306 305 305 305 304 304 304 305 305 306 307 308 309 309 308 308 308 308 308 307 307 307 308 308 307 308 308 308 308 308 308 307 306 305 305 304 304 304 304 304 303 302 301 300 299 298 297 296 296 296 296 295 295 294 294 294 294 293 292 292 292 291 291
307 307 307 307 307 307 307 307 308 308 309 309 309 307 305 305 305 304 303 303 303 303 303 303 303 303 303 303 302 302 302 302 304 306 308 309 309 309 310 309 309 308 308 308 308 308 308 307 307 307 307 307 307 306 305 305 304 304 304 303 303 303 302 301 300 298 297 297 296 296 296 295 294 294 294 294 294 294 294 293 293 292 291 291 291
304 304 306 306 307 307 307 307 307 308 308 309 309 309 308 307 307 306 304 303 303 303 304 303 304 303 303 303 303 302 302 302 302 303 306 309 311 311 311 310 310 309 309 309 309 308 308 307 307 306 306 306 306 305 304 303 303 303 303 303 302 301 300 299 297 296 296 296 295 295 294 294 294 294 294 294 294 293 293 293 293 292 291 291 291
302 302 303 303 305 305 306 306 306 307 308 308 309 309 309 307 307 306 306 304 304 304 304 304 304 305 305 304 304 303 302 302 301 302 305 309 311 311 311 310 310 309 309 309 308 308 307 307 306 306 305 305 304 304 303 303 302 302 302 301 299 298 297 296 296 295 295 295 294 294 293 294 294 294 294 294 294 294 293 293 292 292 291 291 291
301 301 302 302 302 303 305 306 306 306 306 307 308 309 309 307 306 306 306 305 304 304 305 305 306 306 305 304 304 303 303 302 303 304 305 309 311 310 310 309 309 309 308 308 307 307 306 305 305 304 304 303 303 303 302 301 300 299 298 297 296 296 295 295 295 294 294 293 293 294 294 294 294 294 294 294 293 293 293 292 292 291 291 291 291
299 300 301 301 301 302 302 304 305 305 305 306 306 307 308 306 305 305 305 305 304 304 305 306 307 306 305 304 304 303 303 303 304 305 307 309 310 310 310 309 309 308 307 307 306 305 305 304 303 303 303 302 300 299 298 297 296 296 295 295 295 295 294 294 293 293 293 293 294 294 294 294 294 294 293 293 292 292 292 291 291 291 291 291 291
298 299 300 300 300 301 301 302 303 303 304 304 305 305 305 305 304 305 305 304 304 305 305 305 305 304 304 304 304 304 305 305 303 304 306 307 307 308 309 309 307 306 306 306 305 304 303 302 301 300 299 297 296 296 296 295 295 295 295 295 294 294 293 293 293 293 294 294 294 294 294 294 293 293 292 292 292 292 291 292 292 292 292 292 292
298 298 299 299 300 300 301 301 301 302 303 304 304 304 304 304 304 305 305 304 304 304 304 304 304 303 304 304 304 305 306 305 302 302 303 303 305 307 307 306 305 303 304 304 303 302 301 299 298 296 296 296 296 296 296 295 295 295 294 293 293 293 293 293 294 294 294 293 293 293 293 293 292 292 292 292 292 292 292 292 292 291 292 291 291
298 298 298 299 299 300 301 301 301 301 302 303 303 304 304 304 304 305 305 305 305 305 304 304 303 303 304 304 305 305 306 304 302 301 301 302 305 306 305 304 303 303 302 302 301 300 298 297 296 296 296 296 296 296 295 295 294 293 293 293 293 293 294 293 293 293 293 293 293 293 293 292 292 292 291 291 291 292 292 291 291 291 291 291 290
299 298 298 298 298 299 300 301 301 301 301 302 303 304 304 304 304 304 304 304 304 304 304 303 303 303 303 304 305 305 305 303 302 302 302 302 303 304 304 303 302 302 301 300 299 298 297 296 296 296 296 296 295 295 294 293 293 293 293 293 294 293 293 293 293 293 293 293 293 292 292 292 291 291 291 291 291 291 291 291 291 291 291 291 291
298 299 298 298 298 298 299 300 301 301 301 302 303 304 304 304 304 303 303 303 303 303 303 302 303 303 303 304 304 304 303 302 302 302 302 302 303 303 303 303 302 301 300 299 297 296 296 296 296 295 295 295 294 293 293 293 293 293 293 293 293 293 293 292 292 292 292 292 292 292 292 291 291 291 291 291 291 291 291 291 291 291 291 291 290
296 298 298 298 298 298 298 299 299 299 300 301 302 302 302 302 303 303 303 302 302 303 303 303 303 303 303 303 304 303 303 303 302 302 302 302 303 303 303 302 301 300 299 297 296 296 296 296 295 295 295 294 293 293 293 293 293 293 293 293 293 292 292 292 292 292 292 292 292 292 291 291 290 290 290 291 291 291 291 291 291 291 291 291 291
294 296 297 298 298 298 298 298 298 299 299 300 301 301 302 302 302 302 302 302 302 302 302 303 303 303 303 304 304 303 303 303 303 302 302 303 303 302 302 301 300 298 297 296 295 295 295 295 295 294 294 293 293 292 293 293 293 293 293 293 293 292 292 291 291 292 292 292 292 291 291 290 290 290 291 291 291 291 291 291 291 291 291 291 291
293 294 296 297 298 298 298 298 298 298 298 298 299 300 301 301 301 301 302 302 302 302 303 303 303 303 304 304 304 304 303 303 303 302 303 303 303 302 301 300 298 296 295 295 295 295 295 295 295 294 293 293 292 293 293 293 293 293 293 293 292 292 291 291 291 291 292 291 291 290 290 290 290 290 291 291 291 291 291 291 291 291 291 291 292
293 293 294 296 297 298 298 298 298 298 298 298 298 298 299 299 299 300 300 301 301 302 304 305 306 305 305 305 304 304 303 303 303 303 303 303 303 302 299 297 296 295 295 295 295 295 295 294 294 293 292 292 293 293 293 293 293 293 293 292 292 291 291 290 291 291 292 291 290 290 290 290 290 291 291 291 291 291 291 291 291 291 291 292 292
293 293 293 294 296 298 298 298 298 298 298 298 299 298 298 298 298 298 299 299 300 301 301 303 304 304 304 304 304 304 303 303 303 302 303 303 302 300 297 296 295 295 295 295 295 295 294 293 292 292 292 292 293 293 293 293 293 293 292 292 291 291 290 290 291 291 291 290 290 289 290 290 290 291 291 291 291 291 291 291 291 291 291 292 292
292 293 293 294 295 297 298 298 298 298 298 298 299 299 299 298 298 298 298 299 299 300 300 300 301 302 303 304 304 304 303 303 302 302 302 302 300 298 296 295 295 295 296 296 295 293 292 292 292 292 292 292 293 293 293 293 292 292 292 292 291 291 290 290 291 291 291 290 290 290 290 290 290 291 291 291 291 291 291 291 292 292 292 292 292
292 293 293 293 294 296 298 298 298 298 299 299 299 300 300 300 300 300 299 299 300 300 300 300 301 302 304 304 304 303 303 303 302 302 301 299 297 295 295 295 296 296 295 294 293 291 291 291 292 292 292 292 293 293 293 292 292 292 292 292 291 290 290 290 291 291 290 290 290 290 290 290 290 291 291 291 291 291 291 291 292 292 292 292 292
292 292 293 293 294 295 298 298 298 298 299 299 299 300 300 300 300 300 301 301 301 301 301 301 302 303 304 303 303 303 302 302 302 300 298 296 295 295 295 295 295 295 294 293 291 290 291 292 292 292 292 292 293 292 292 292 292 292 292 292 291 290 289 290 291 291 290 290 290 290 290 290 290 291 291 291 291 291 291 291 292 292 292 292 292
293 292 292 293 293 295 297 298 298 298 299 299 299 299 299 300 300 300 301 301 302 302 302 302 303 303 302 302 302 302 302 302 301 299 296 295 295 295 295 295 294 294 293 292 290 290 291 292 292 292 292 292 292 292 292 291 292 292 292 291 290 289 289 290 291 291 290 290 290 290 290 290 290 290 290 290 291 291 291 291 292 292 292 292 292
294 293 293 292 293 294 296 297 298 298 299 299 299 299 299 299 300 300 300 301 301 301 301 302 303 302 301 301 301 301 301 301 300 298 296 295 295 295 294 294 294 294 293 291 290 290 291 292 292 292 292 292 292 291 291 292 292 292 292 291 290 289 289 290 291 291 290 290 290 290 289 290 290 290 290 290 291 291 291 291 292 292 292 292 292
294 294 293 293 293 294 295 296 297 298 298 298 298 299 299 299 299 300 300 300 301 301 302 303 303 302 301 301 301 301 301 299 297 296 296 295 295 295 294 294 294 294 292 290 289 290 291 292 292 292 292 292 291 291 291 292 292 291 291 290 289 289 289 290 291 291 290 290 290 290 290 290 290 290 290 290 291 291 291 291 292 292 292 292 293
295 294 293 293 293 293 294 295 296 297 297 298 298 298 299 299 299 300 300 300 301 301 301 301 301 301 301 301 301 299 298 297 296 296 296 295 294 294 294 294 294 294 292 290 289 290 291 292 292 292 292 291 291 291 291 292 291 291 290 290 289 289 289 290 291 290 290 290 290 289 290 290 290 290 290 290 291 291 291 291 292 292 292 293 293
295 295 294 294 293 293 293 294 295 296 297 297 297 298 298 298 298 299 300 301 301 300 299 299 300 301 301 299 297 296 296 296 296 296 295 294 294 294 294 294 294 293 293 291 290 289 290 291 291 292 292 291 291 291 291 291 290 289 289 289 289 289 289 290 291 290 290 290 289 289 289 290 290 290 290 291 291 291 291 291 292 292 293 293 293
296 295 295 294 293 293 293 294 294 295 296 296 296 297 297 297 297 298 298 299 299 299 299 299 300 300 298 296 295 295 295 295 295 295 294 294 294 294 294 294 294 293 293 292 290 289 290 291 292 292 291 291 291 291 291 290 289 289 289 289 289 289 289 290 291 290 290 290 290 289 289 290 290 290 290 291 291 291 291 292 292 292 293 293 293
296 296 296 296 295 294 294 294 295 295 295 295 296 297 298 298 298 298 297 297 298 299 299 299 298 297 296 296 296 296 295 294 294 295 294 294 294 294 294 294 293 293 293 291 289 289 290 291 292 291 291 291 291 290 289 288 288 288 288 288 288 289 290 290 290 290 290 290 290 290 289 290 290 290 291 291 291 291 291 291 292 292 293 293 293
297 297 297 296 296 295 295 295 295 295 296 297 298 299 299 299 299 298 296 296 297 298 298 297 297 296 296 296 296 295 294 294 294 295 294 294 294 294 294 293 293 293 292 291 289 289 290 291 292 291 291 291 290 289 288 288 288 288 288 287 288 289 290 290 290 290 290 290 290 290 290 290 290 291 291 291 291 291 291 291 292 292 293 293 293
297 297 297 297 296 296 296 296 297 297 298 298 299 299 299 298 297 296 296 296 296 297 297 297 296 296 296 295 295 294 294 294 294 294 294 294 294 294 293 293 292 292 292 292 290 289 290 291 291 291 290 290 289 288 288 287 287 287 287 287 287 288 290 290 290 290 290 290 290 290 290 290 290 291 291 291 291 291 291 291 292 292 293 293 293
297 297 297 297 297 297 297 297 297 297 298 298 297 297 297 297 296 296 296 296 296 296 296 296 296 295 295 295 294 294 294 295 294 294 294 294 294 293 293 292 292 292 292 291 290 289 290 291 291 290 290 289 288 288 287 287 287 287 287 287 287 288 289 290 290 290 290 290 289 289 290 290 290 291 291 291 291 291 291 291 292 292 293 293 293
297 297 296 296 296 296 296 296 296 296 296 296 296 296 296 296 296 296 296 296 296 296 296 295 295 295 295 295 295 295 295 294 294 294 294 294 293 293 293 292 292 292 292 290 289 290 291 291 290 289 289 288 288 287 287 287 287 287 287 287 287 287 289 290 290 290 290 290 289 289 289 290 290 291 291 291 291 290 290 291 292 292 293 293 293
297 297 296 296 296 296 296 296 296 296 296 296 296 296 296 296 296 296 296 296 296 296 296 295 295 295 295 295 294 294 294 294 294 294 294 293 293 293 292 292 292 292 291 289 288 290 290 289 289 288 288 287 287 287 287 287 288 288 288 288 287 287 288 289 290 290 290 290 290 289 289 290 290 291 291 291 291 291 290 291 292 292 293 293 293
297 297 297 297 297 297 297 297 297 297 297 297 297 297 297 297 296 296 296 296 296 296 296 296 295 295 295 294 294 294 294 294 293 293 293 293 293 292 292 292 292 291 290 288 288 289 289 288 287 287 287 287 287 287 287 288 288 288 288 288 288 287 287 288 289 289 289 290 290 289 289 290 290 291 291 291 291 291 291 291 292 292 292 292 292
Wind_Speed
21 22 24 24 24 24 19 19 20 18 17 17 14 13 16 13 10 10 10 8 6 5 4 4 4 3 3 3 4 4 4 4 4 5 6 7 8 8 7 7 7 7 7 7 6 5 5 4 4 4 3 3 4 5 5 6 7 8 8 9 10 11 11 11 11 11 12 13 13 14 14 14 14 14 13 12 12 12 13 13 13 13 13 13 15
19 19 19 20 21 21 20 20 20 18 20 20 16 16 16 13 11 11 11 10 8 7 6 6 6 6 5 4 4 4 4 4 3 3 3 3 3 3 3 3 2 3 3 3 3 3 2 2 1 1 1 1 1 2 3 4 5 7 7 9 10 11 12 13 13 14 14 14 15 15 16 16 16 16 16 15 14 14 14 15 15 15 15 15 15
18 17 16 16 17 19 21 24 22 20 22 23 19 17 17 14 13 13 12 11 9 9 8 8 8 7 7 6 5 5 5 5 5 4 3 2 1 1 1 1 2 2 2 2 2 2 2 2 3 3 2 2 3 3 3 4 5 6 7 8 9 10 11 12 13 14 15 16 16 17 17 17 18 18 18 18 17 17 16 16 16 16 16 16 17
14 15 14 13 14 17 21 26 25 23 25 26 23 19 17 16 15 15 15 14 13 11 10 9 8 8 8 7 7 6 6 7 6 5 4 4 4 3 3 3 3 2 2 3 3 3 4 4 4 4 4 4 4 4 3 4 4 6 8 8 9 9 10 11 12 13 14 15 16 17 18 18 19 19 18 18 18 18 18 17 17 16 16 16 17
8 10 11 11 13 15 19 25 26 24 27 29 26 21 17 17 18 18 18 18 17 16 14 13 11 10 9 8 9 9 9 9 8 7 6 5 5 5 4 3 3 3 2 3 3 3 3 4 5 5 6 6 6 6 5 5 5 7 9 9 8 9 9 10 11 12 14 15 16 17 18 19 19 20 20 19 19 19 19 18 18 17 16 16 16
3 6 9 10 12 14 17 21 23 24 27 28 27 24 20 19 20 21 22 22 21 19 17 17 16 14 12 11 12 12 12 11 10 8 8 7 7 8 7 5 4 4 4 4 5 4 4 4 5 5 6 6 7 8 8 8 7 8 9 9 9 10 11 11 12 12 13 15 17 18 19 20 20 20 21 21 22 22 22 21 19 18 18 18 17
3 5 8 10 12 14 15 17 21 26 27 27 26 25 22 21 21 23 23 24 24 22 20 19 18 17 15 14 14 15 14 12 12 11 11 10 10 10 11 10 8 7 8 8 8 8 7 6 6 6 7 7 7 8 9 10 10 10 10 10 12 13 14 13 13 13 14 15 17 18 20 21 21 22 22 23 23 23 24 24 22 21 21 21 21
2 4 7 10 12 16 18 19 21 25 26 25 24 23 22 22 23 23 24 25 25 24 22 20 19 18 16 16 16 17 16 14 15 14 14 14 14 13 14 14 13 11 10 11 12 12 12 10 8 9 9 10 10 10 10 11 11 12 12 12 13 15 15 14 13 14 15 17 18 19 20 20 21 22 22 23 24 25 25 25 25 25 25 24 25
3 2 4 6 9 14 18 20 21 23 25 25 23 22 22 23 24 25 26 27 28 28 25 20 20 20 20 20 20 21 18 16 16 17 16 18 19 17 16 17 17 15 14 13 13 13 13 13 12 12 12 12 13 13 13 13 13 13 13 13 14 15 15 14 14 14 16 18 19 20 20 20 20 21 22 23 25 25 26 27 27 28 27 26 26
5 4 3 3 5 9 14 17 18 20 23 24 24 23 23 24 24 25 27 28 31 34 31 24 22 24 24 23 23 23 21 19 19 20 20 20 19 17 17 17 17 18 18 18 16 15 14 14 14 14 14 15 17 16 15 16 16 15 14 14 15 15 16 15 15 15 16 18 19 20 20 20 20 22 22 23 24 25 26 28 29 29 30 29 28
6 5 3 3 5 8 10 13 14 16 17 17 18 19 20 19 19 20 23 25 29 35 37 33 30 28 26 25 24 23 22 20 19 19 19 18 18 18 18 18 18 18 18 17 16 15 15 15 16 16 16 17 17 16 16 17 17 16 16 16 16 17 17 16 16 16 17 19 20 20 21 21 21 22 23 24 25 27 28 29 31 32 33 33 32
7 5 4 4 6 7 9 10 12 13 14 14 13 14 14 14 14 15 17 18 21 28 33 35 34 31 27 25 24 22 20 19 19 18 17 17 17 17 16 17 17 16 15 15 14 15 15 15 16 16 17 17 16 16 16 18 18 18 18 18 18 18 18 17 17 17 19 20 21 22 22 22 23 24 25 26 27 29 30 31 33 34 35 36 36
7 6 6 5 6 7 8 9 11 12 12 12 11 11 12 12 12 13 13 13 15 19 23 27 29 29 27 25 23 21 19 18 16 15 13 12 13 13 13 14 15 14 15 15 15 16 16 16 15 15 16 16 15 15 17 18 19 18 18 19 19 19 19 19 18 19 20 21 22 23 23 24 25 26 27 29 30 31 32 33 34 35 36 36 37
5 6 6 6 6 6 7 8 9 9 10 11 12 12 12 13 13 14 14 14 14 14 16 19 22 23 22 21 19 17 15 12 10 9 9 9 9 10 11 11 12 12 12 13 14 15 16 16 16 15 14 14 13 13 15 18 18 18 18 19 19 19 19 19 19 19 22 23 24 24 24 25 26 27 29 30 32 33 34 35 35 35 36 36 37
5 6 6 6 5 5 5 6 6 6 8 10 11 11 11 10 10 11 12 13 13 13 14 15 16 16 15 14 13 12 11 10 8 7 8 8 8 8 9 9 9 9 9 10 11 12 13 14 15 14 13 12 10 11 14 17 18 18 18 19 19 19 19 18 19 21 24 25 25 24 25 26 27 28 30 31 33 34 35 35 35 35 36 36 36
5 6 7 7 7 7 7 7 6 5 6 8 9 9 9 8 7 7 8 9 10 11 11 11 11 11 11 11 10 10 9 9 8 8 8 8 8 8 8 8 8 8 8 8 8 9 9 10 10 10 9 7 7 10 14 17 17 18 18 19 19 18 18 19 21 25 26 26 25 25 26 26 27 29 31 32 33 34 34 35 34 34 35 36 36
4 5 7 8 9 10 10 9 8 7 6 7 8 8 8 7 7 7 8 9 10 10 10 10 10 11 10 10 11 10 9 9 9 8 8 8 8 8 8 7 8 7 8 8 8 8 7 7 6 5 4 4 6 10 14 16 17 18 18 18 17 17 18 22 25 26 26 26 26 26 26 27 28 30 31 31 32 33 34 34 33 32 33 35 36
7 7 8 8 8 9 10 10 9 8 7 7 8 8 7 7 7 7 8 8 9 10 10 10 10 10 10 9 9 9 8 7 7 7 7 7 8 8 8 7 7 7 7 8 8 8 7 6 5 4 3 5 8 11 14 16 17 17 17 16 16 18 22 24 26 26 26 26 26 26 27 28 30 30 31 31 31 32 32 32 31 31 31 32 33
7 8 8 8 8 8 10 11 10 9 9 8 8 7 7 7 8 8 9 9 10 10 10 10 9 7 6 6 5 5 5 5 6 6 6 7 7 8 8 7 7 6 7 7 7 7 7 6 5 5 6 8 10 12 14 15 16 16 16 16 18 21 24 25 25 25 24 25 26 27 28 29 30 31 32 32 32 31 31 30 29 29 29 30 30
8 9 9 10 9 9 10 11 11 11 10 10 9 7 7 7 7 7 8 9 9 9 8 8 7 5 4 3 3 4 6 7 7 7 7 8 9 9 9 9 8 7 7 7 7 7 7 7 7 8 9 10 11 12 13 14 15 16 16 18 20 22 23 23 23 24 25 26 27 28 29 30 31 32 33 32 31 30 29 28 27 27 27 28 28
13 12 12 13 13 13 12 13 14 14 13 12 11 10 8 8 8 7 8 8 8 7 7 6 5 4 3 2 3 5 7 9 9 9 9 9 9 9 9 9 8 8 7 7 7 8 8 9 10 11 11 11 12 12 12 14 15 17 18 19 20 21 22 24 25 26 27 28 29 30 31 32 32 32 31 30 29 29 28 27 26 25 25 26 27
16 16 16 16 17 17 15 15 16 17 16 17 16 15 13 12 11 9 9 9 8 7 6 6 5 4 4 5 6 7 8 9 10 10 9 9 9 9 8 7 7 7 7 7 8 9 10 11 11 12 12 12 12 12 13 15 16 17 18 19 21 22 24 25 26 27 28 29 31 32 32 32 31 30 30 29 28 28 27 27 25 25 25 25 26
20 19 18 18 18 18 17 15 16 17 18 19 19 18 18 18 18 16 14 12 12 11 9 8 7 7 7 8 9 10 11 11 11 11 10 9 8 7 7 7 7 7 8 9 10 10 11 12 11 11 11 11 12 13 14 16 17 18 20 21 22 23 24 25 26 27 28 30 30 31 30 30 30 30 30 30 29 29 28 27 25 25 25 25 26
23 23 22 20 19 18 18 18 18 16 16 18 22 25 24 22 22 23 20 16 14 13 11 11 10 9 9 10 10 11 11 12 11 11 10 9 8 8 8 9 9 9 10 10 11 10 11 10 10 10 10 11 12 14 15 16 18 19 20 21 21 22 23 25 26 27 28 28 29 29 29 30 30 31 30 30 30 29 28 27 26 25 26 27 27
23 23 24 23 21 20 19 20 20 18 16 16 19 24 25 22 19 19 20 18 16 15 14 13 12 10 10 10 11 10 10 10 10 10 9 9 9 9 10 10 10 10 11 11 10 10 9 9 9 10 11 12 13 13 15 16 17 18 19 20 21 22 23 24 25 26 26 27 28 29 30 30 30 30 29 29 28 27 26 26 26 26 27 28 29
25 23 22 22 22 22 21 21 21 21 22 22 20 19 20 19 15 15 15 15 15 15 14 13 11 10 11 11 10 9 7 7 7 7 7 8 9 10 11 10 10 11 11 11 10 9 9 9 9 10 11 12 12 13 15 16 16 18 19 20 21 22 22 23 24 25 26 27 28 28 28 29 28 28 27 27 26 25 25 26 28 28 27 28 28
29 27 25 22 21 20 21 22 22 22 23 25 24 23 24 23 21 19 19 19 18 17 17 15 14 14 15 13 10 8 7 6 6 5 6 7 8 10 11 11 10 10 9 9 9 8 8 9 9 10 10 11 12 13 14 16 17 18 20 20 20 20 21 22 23 24 25 25 26 27 28 28 27 27 26 25 25 24 25 27 29 29 27 27 28
29 30 29 27 24 21 18 19 20 22 23 24 24 25 28 28 29 29 30 29 27 23 21 19 17 16 15 12 10 9 8 7 6 6 6 7 8 10 11 10 9 9 8 8 8 8 8 9 9 10 10 11 12 14 15 16 17 18 18 18 18 19 19 20 21 22 23 24 26 27 28 27 27 26 26 26 26 26 26 27 28 28 28 27 28
30 30 30 30 29 26 22 19 18 20 23 25 24 25 27 27 26 25 24 23 23 21 19 18 17 15 14 12 10 10 9 8 7 7 7 8 9 10 11 10 10 9 9 9 8 8 8 9 9 9 10 11 13 14 15 15 15 15 15 16 16 17 18 19 21 22 23 25 26 27 28 27 27 27 27 28 28 27 26 26 27 27 27 27 27
32 31 31 30 30 29 27 25 23 21 23 24 24 24 24 22 22 20 18 18 19 20 19 17 16 15 14 13 12 11 10 9 9 9 9 9 11 12 12 11 10 10 9 9 8 8 8 8 8 9 10 12 13 14 13 13 13 12 13 14 15 16 18 20 22 24 25 26 27 27 28 27 27 27 27 28 28 27 26 26 26 26 26 26 27
35 35 33 31 31 30 29 28 26 23 23 25 27 26 24 22 22 23 22 21 19 19 19 18 16 16 15 14 14 13 12 11 10 10 10 11 12 12 12 11 11 10 9 8 8 8 8 8 9 10 11 12 12 12 12 11 11 11 11 13 15 17 19 22 24 25 26 27 27 27 27 26 25 25 25 26 27 27 26 26 25 26 26 25 26
37 37 36 34 32 30 30 29 27 24 22 23 25 27 28 27 25 24 24 24 23 21 20 19 18 18 17 16 15 14 13 12 11 11 11 12 12 12 12 12 11 10 9 8 8 8 8 8 9 10 11 11 11 11 10 9 9 10 12 13 15 18 21 23 25 27 27 27 27 26 25 23 23 23 24 25 26 26 26 25 25 25 25 25 25
37 37 38 37 34 31 30 29 29 27 25 23 22 23 25 26 22 19 20 23 24 24 23 21 21 19 17 16 15 14 13 13 12 12 12 12 12 13 13 13 11 10 9 8 8 8 8 9 10 10 11 11 10 9 8 8 9 11 13 15 17 19 22 24 26 28 28 27 25 23 22 21 21 23 25 25 25 25 25 25 25 25 25 25 25
34 36 37 37 35 32 29 29 29 28 25 24 24 23 23 23 20 17 18 19 18 17 18 19 19 17 16 16 16 15 14 14 13 13 12 12 13 13 14 13 12 10 9 8 8 8 8 9 10 10 9 9 8 7 7 8 10 12 13 15 18 20 23 25 27 28 28 27 24 22 21 20 22 24 25 25 24 24 24 24 24 24 24 24 25
30 34 35 36 36 33 29 28 29 28 25 24 24 23 24 23 22 21 21 20 17 15 15 15 14 14 15 16 16 14 14 14 14 13 13 13 14 15 15 14 12 10 9 8 8 8 9 9 8 8 7 6 6 5 6 9 11 13 14 17 19 22 24 26 27 28 27 25 22 21 20 21 22 23 24 25 24 23 23 23 23 24 24 24 24
27 30 32 34 36 34 30 27 26 25 23 23 23 22 23 23 23 23 22 20 19 19 20 19 18 18 19 18 15 14 14 14 13 13 12 13 15 15 14 12 11 9 8 8 8 7 7 7 6 6 5 4 5 5 7 9 11 13 15 18 21 22 24 26 27 27 25 23 21 21 21 21 22 24 24 24 24 22 22 23 23 24 24 23 24
25 27 29 32 35 35 31 28 27 24 21 21 22 21 21 21 21 22 22 21 21 21 20 21 22 23 22 20 17 16 15 13 12 12 13 14 15 14 12 10 9 8 8 7 6 6 6 5 4 3 3 4 4 6 7 9 11 14 17 19 21 22 24 25 26 25 24 23 22 22 22 22 23 24 25 25 24 23 22 22 23 24 24 23 23
22 23 24 26 32 35 33 29 27 25 22 21 22 22 22 21 21 21 22 23 23 21 21 21 23 24 23 21 19 17 16 15 15 16 17 17 17 15 12 10 9 7 6 5 5 5 5 4 2 2 2 3 5 6 8 10 13 16 18 19 20 21 23 24 25 24 24 23 23 23 23 23 24 25 25 25 24 23 22 23 23 24 24 23 23
19 19 19 21 27 34 34 30 28 27 25 23 22 22 22 22 22 22 22 22 23 23 23 23 24 23 22 19 18 19 19 19 19 21 21 19 17 14 12 10 8 6 5 5 5 4 4 3 2 2 3 4 5 7 9 12 15 17 18 19 19 21 23 24 25 24 24 23 23 23 24 25 25 25 24 23 23 23 23 23 23 23 23 23 23
16 16 16 17 22 31 34 31 29 28 27 25 23 22 22 22 22 22 23 23 23 24 24 25 25 24 21 18 18 20 21 22 23 23 22 19 17 14 12 9 7 6 5 4 4 4 3 3 2 2 3 4 6 8 10 14 16 17 18 18 19 21 23 24 24 24 23 23 23 24 25 25 25 25 24 22 22 22 23 23 23 22 22 22 23
12 11 11 13 17 25 31 31 29 27 26 25 23 22 21 21 21 22 23 24 25 26 28 30 29 24 19 18 20 21 22 23 24 22 19 17 15 13 11 9 6 4 3 2 2 2 2 2 3 3 4 5 7 9 12 14 16 17 17 18 19 20 22 23 23 23 23 23 24 25 26 26 26 25 24 23 23 23 23 23 22 21 21 21 22
6 6 6 9 14 21 27 30 29 26 24 24 23 23 22 21 21 20 21 22 24 27 31 32 28 22 18 19 21 21 21 22 21 19 16 14 13 11 10 7 4 2 1 1 1 1 2 3 4 4 4 5 7 10 13 15 16 17 17 18 18 20 22 23 23 22 23 23 24 26 27 28 27 25 24 24 24 24 24 23 21 20 20 21 21
7 6 4 4 9 15 22 26 27 25 24 23 23 23 22 22 21 21 21 21 23 23 22 21 20 18 19 21 22 23 22 20 18 16 14 13 11 10 8 5 2 1 0 1 2 2 3 4 4 5 5 6 8 11 13 15 16 17 18 18 18 20 22 23 23 23 23 24 25 27 28 28 28 26 25 25 25 25 25 23 20 19 19 20 20
11 8 6 5 7 10 16 20 22 22 21 21 20 20 19 20 21 20 19 19 20 19 16 16 18 20 23 24 24 22 20 18 16 15 13 11 10 9 7 4 2 1 1 2 3 3 3 4 4 4 4 6 8 11 13 15 16 17 17 17 18 19 21 23 23 23 23 25 26 27 28 28 28 27 26 25 25 25 24 22 19 19 18 18 19
11 9 7 8 9 10 13 15 17 17 17 17 17 16 16 16 15 14 13 16 20 19 17 18 20 22 24 24 22 20 19 17 15 14 12 10 9 7 5 3 2 2 2 2 3 2 3 4 4 4 4 5 8 10 12 13 15 16 17 17 17 19 20 22 23 23 23 24 26 27 27 27 27 27 26 25 23 23 23 21 19 18 17 17 17
13 11 11 11 12 12 13 13 13 14 14 14 14 14 14 13 11 9 12 17 20 19 19 21 23 23 23 22 20 19 18 17 15 12 11 10 8 6 4 4 3 3 2 2 3 3 4 4 3 2 3 4 6 8 10 12 14 15 16 16 17 18 19 21 21 22 22 23 24 26 26 26 26 26 26 24 22 21 21 20 18 17 15 15 15
13 12 12 12 12 11 12 12 12 12 12 11 10 11 11 10 9 10 13 17 20 21 22 23 23 22 21 20 19 18 17 15 13 11 10 8 6 5 4 4 3 3 3 3 3 4 4 3 2 2 3 4 5 7 9 12 13 14 15 16 16 17 18 19 20 22 22 22 23 24 25 26 26 26 25 24 22 20 20 20 18 16 14 13 13
19 17 15 14 13 12 11 11 10 10 10 10 10 11 12 13 14 16 19 21 23 24 24 22 21 20 19 17 17 16 14 12 11 10 9 7 6 5 4 3 3 3 3 3 3 3 3 2 2 2 3 3 5 7 9 11 13 13 15 15 15 16 17 18 19 21 22 21 21 22 24 24 24 25 25 24 22 20 19 18 17 16 14 12 11
29 27 26 25 24 23 22 21 21 20 19 18 18 18 19 20 22 23 23 23 22 21 20 20 19 18 16 15 14 13 11 10 10 9 8 7 6 5 3 3 3 3 3 3 3 2 2 2 2 2 3 4 6 8 10 11 12 13 14 15 15 15 15 16 17 19 21 21 21 21 22 22 22 23 23 23 21 19 18 16 16 15 13 12 11
27 27 27 27 27 27 26 26 26 26 25 25 24 24 23 23 23 22 21 20 18 17 17 16 16 15 13 12 11 10 9 8 8 7 7 7 6 5 4 4 3 3 3 3 2 1 1 2 2 3 4 4 6 8 9 10 12 13 15 16 16 15 14 15 16 17 19 21 22 21 21 21 21 21 22 22 21 20 18 16 14 14 13 12 11
21 21 22 22 22 22 21 21 21 21 20 20 20 20 19 19 18 17 16 15 14 14 13 13 12 12 11 10 9 8 8 8 8 7 7 6 6 6 5 4 4 3 3 2 1 1 2 2 3 4 4 5 6 8 8 9 11 13 15 16 17 16 15 14 15 16 18 21 22 21 20 20 20 20 20 21 21 20 18 15 14 13 12 11 11
Wind_Direction
244 230 232 240 242 243 242 226 211 206 211 212 213 228 233 229 231 236 234 233 231 234 242 249 251 242 219 200 192 192 193 184 173 161 151 144 137 130 123 119 118 117 115 113 111 112 114 113 109 104 91 77 65 55 46 37 27 21 15 9 6 4 5 7 7 3 356 352 348 345 343 341 339 336 335 334 331 328 329 329 326 322 315 309 304
246 241 242 241 241 243 238 224 215 210 208 210 219 226 225 225 226 226 231 236 235 237 240 245 252 253 245 232 219 216 218 220 214 196 177 163 145 127 116 110 105 109 108 105 105 103 100 92 90 97 83 50 32 19 14 12 7 5 1 357 354 353 354 356 357 356 352 349 346 342 340 338 335 335 335 335 335 333 331 329 327 324 322 317 312
251 250 249 244 243 244 237 229 224 220 213 215 224 224 216 216 220 219 224 228 231 234 234 235 241 246 247 242 237 235 234 236 238 240 245 246 251 285 301 314 332 348 357 3 10 1 359 2 359 355 350 341 340 340 344 348 349 347 345 344 344 344 346 348 349 349 347 345 343 340 337 335 334 334 334 334 334 333 331 329 327 325 323 320 316
249 250 249 242 238 237 234 231 231 229 220 219 228 230 220 217 219 218 219 221 223 227 230 232 235 241 248 248 243 241 240 241 242 247 265 280 289 295 298 303 313 325 325 325 333 335 338 342 343 344 343 339 337 336 334 339 346 345 340 338 337 336 336 337 338 339 339 338 337 335 333 332 331 330 330 329 329 329 329 329 328 326 325 323 320
240 240 240 237 230 225 227 234 238 231 219 219 229 233 227 223 223 224 224 225 225 225 228 231 232 235 243 251 253 249 245 243 241 238 240 253 270 281 288 298 306 310 302 293 296 305 317 325 327 334 339 338 337 334 329 333 341 342 340 336 333 329 326 325 327 329 330 330 330 329 328 327 326 325 324 324 323 323 325 326 326 324 322 322 322
258 244 239 236 228 220 224 235 234 220 213 221 230 234 235 231 229 230 231 231 232 232 233 236 238 237 239 249 255 251 248 246 242 239 234 230 236 252 264 273 281 288 287 281 279 279 284 297 306 316 324 328 329 325 321 321 322 325 332 334 330 324 319 317 320 323 323 323 324 324 323 322 322 322 322 322 321 320 320 318 318 318 316 316 318
289 258 248 242 233 224 225 231 225 216 217 225 233 239 242 239 237 237 238 239 239 240 242 243 246 246 242 244 250 249 248 250 250 249 246 241 239 251 264 269 268 271 274 273 271 267 260 261 274 286 292 295 297 300 303 304 303 304 313 323 325 322 316 312 314 317 317 317 317 316 318 319 320 321 322 322 320 318 317 314 313 314 317 319 319
323 260 252 249 239 228 227 231 228 224 226 232 239 245 247 245 244 243 244 244 242 244 249 247 247 251 244 238 244 246 247 255 261 260 255 254 257 260 265 269 270 269 270 271 269 266 261 256 257 265 272 278 280 280 282 284 287 291 297 306 313 312 306 303 306 310 310 310 310 312 315 317 317 318 318 317 316 317 319 320 319 319 319 321 323
350 303 262 257 245 234 234 238 238 236 236 241 248 252 253 252 253 252 251 248 242 244 251 250 246 247 242 239 244 247 251 261 270 271 267 264 267 268 267 270 271 268 270 274 271 265 262 260 261 263 264 268 270 271 274 276 277 279 281 287 294 297 296 295 299 303 304 305 308 311 313 314 312 312 313 314 316 318 320 322 323 323 321 320 321
334 319 290 261 243 237 238 242 243 242 243 248 254 257 256 257 260 261 257 249 241 241 247 251 247 244 241 242 246 251 257 264 271 274 271 266 266 270 271 273 273 272 275 276 270 262 260 261 263 261 260 263 263 263 267 272 275 277 276 276 281 286 291 291 292 297 302 306 311 312 312 311 311 311 313 316 318 320 321 321 322 323 323 320 318
324 317 294 260 243 241 241 242 244 244 245 247 251 256 256 255 257 258 254 248 241 238 240 243 244 243 243 247 253 256 258 262 269 274 271 268 269 274 276 274 273 275 278 276 270 264 262 261 262 259 258 262 264 264 266 268 270 274 274 272 275 282 287 288 290 298 307 312 315 315 314 314 313 314 317 320 321 322 323 324 325 325 325 324 321
310 301 288 267 253 249 247 247 249 249 249 249 251 254 256 253 252 253 251 247 241 238 238 239 241 244 249 255 260 259 258 263 272 274 272 273 274 275 275 274 274 277 279 279 276 273 269 267 266 263 259 259 263 268 268 263 261 263 265 269 275 282 286 289 293 303 311 315 316 316 315 317 317 318 321 322 323 323 323 324 325 325 325 325 323
304 290 278 266 259 255 251 250 251 254 254 253 251 251 254 256 257 256 255 250 244 241 240 239 240 244 252 259 262 260 257 260 266 269 269 271 273 274 274 275 278 280 281 282 281 279 277 276 273 270 263 256 257 262 262 257 254 256 262 269 275 280 286 292 298 306 312 314 314 314 315 316 318 320 321 321 321 320 321 322 323 323 322 322 321
312 294 277 266 260 257 259 258 255 252 247 241 241 244 249 256 258 255 252 248 244 243 242 241 242 246 253 256 255 252 247 242 241 248 258 267 272 276 275 275 278 281 282 283 282 280 278 275 273 270 263 256 256 259 256 251 252 257 264 269 275 282 290 295 301 308 313 313 312 312 313 315 316 317 317 317 317 318 319 320 320 320 319 318 318
274 272 263 257 251 253 268 270 258 242 226 220 226 233 238 242 245 244 241 236 234 237 240 242 242 241 239 237 235 229 220 217 225 245 267 278 280 278 278 278 280 282 284 285 286 284 281 278 274 270 265 261 260 254 246 247 252 258 264 270 278 287 293 297 303 309 311 310 309 309 310 311 312 312 313 314 314 315 316 317 318 317 315 314 315
243 252 250 251 258 266 273 272 264 246 221 213 217 223 226 224 218 216 215 211 213 219 223 223 221 215 213 215 219 216 213 224 242 261 275 284 284 283 286 288 286 287 288 289 290 287 283 279 273 270 273 277 264 246 242 247 254 259 265 275 284 291 296 301 307 309 307 305 304 305 305 306 307 308 310 311 312 314 314 314 315 314 312 311 312
251 259 254 255 267 272 265 257 255 247 235 232 233 232 230 224 214 207 204 200 199 200 202 202 200 200 205 212 217 219 226 240 253 265 275 285 290 291 294 297 294 289 286 287 290 288 284 284 282 282 291 283 258 249 250 254 259 265 273 282 288 294 300 304 304 304 302 300 301 302 303 304 305 307 309 310 311 312 311 311 312 311 309 309 310
261 265 262 257 266 274 261 245 243 245 246 245 240 238 237 235 229 218 208 202 196 195 199 202 204 209 212 216 221 225 233 245 255 266 278 288 296 299 302 304 300 288 284 287 290 294 301 310 319 322 297 261 253 257 260 263 267 274 280 285 290 295 300 300 298 297 297 298 299 300 301 303 304 306 309 310 310 310 309 309 310 309 308 307 308
249 249 250 243 246 261 257 242 235 239 243 241 239 239 234 228 225 221 218 215 210 204 204 204 204 208 211 216 227 236 244 257 269 283 296 302 306 310 312 311 306 297 292 293 296 301 310 316 314 299 274 261 258 262 267 271 275 279 282 285 290 294 294 292 291 292 293 295 296 297 298 301 304 307 309 309 310 310 309 309 309 308 306 305 306
247 237 235 235 238 249 255 248 242 239 236 234 230 221 206 194 191 193 197 198 197 191 185 182 179 177 185 213 248 266 272 278 284 293 302 307 310 312 313 312 309 306 303 302 300 301 300 298 292 283 275 271 269 271 275 278 280 282 284 287 289 290 289 288 289 291 292 294 295 298 301 304 307 308 308 309 310 309 309 309 308 307 305 304 304
263 253 243 239 240 242 242 243 243 239 233 230 226 221 215 208 202 198 191 182 180 181 180 183 186 188 205 245 277 289 289 288 287 288 293 299 304 306 307 307 307 309 311 307 300 293 288 285 282 278 277 277 277 280 282 283 284 286 288 288 288 288 290 291 292 294 296 298 301 304 306 308 308 308 309 309 309 308 307 308 307 305 302 300 300
267 264 256 250 248 245 238 236 239 238 234 230 226 224 224 223 219 219 213 204 206 213 218 227 240 253 267 279 288 295 299 295 290 286 285 290 294 295 296 298 301 304 301 293 286 282 279 277 275 275 276 277 279 282 286 290 292 292 291 290 289 290 292 293 295 297 300 303 305 307 308 309 309 309 310 310 309 309 309 310 308 305 300 296 295
267 265 261 257 254 247 239 235 237 239 238 235 230 227 231 237 239 241 239 232 230 233 239 248 258 266 274 280 287 296 304 305 297 285 275 274 278 283 290 294 292 289 283 276 274 271 269 268 268 271 276 279 280 283 289 294 295 292 291 291 292 293 295 297 299 302 304 305 307 307 309 310 310 310 311 311 311 312 313 313 311 307 303 299 295
269 266 263 260 256 250 242 234 230 231 235 238 236 231 229 231 235 236 236 235 235 237 242 247 253 259 266 274 283 294 303 306 301 289 277 268 262 266 273 276 277 280 281 279 275 270 267 266 265 270 278 281 279 281 286 290 291 290 291 292 294 297 300 302 304 305 307 307 308 309 310 311 312 312 313 313 313 315 315 314 312 309 306 302 297
264 264 263 260 258 255 249 238 229 224 224 230 236 235 229 223 219 223 226 229 235 240 242 241 243 248 259 270 281 291 298 300 299 294 282 270 263 257 253 256 267 277 282 282 279 274 271 269 268 273 279 278 277 282 287 290 291 292 295 298 301 304 306 307 308 309 310 310 311 312 313 313 313 313 313 313 314 315 314 311 308 306 304 301 297
258 258 258 258 257 255 252 244 237 233 231 230 232 234 230 221 211 212 217 220 221 223 227 230 238 250 262 271 276 279 282 291 302 304 287 274 269 259 250 254 267 276 278 279 278 276 276 275 273 275 277 279 284 291 294 294 296 300 304 307 309 311 311 311 312 313 314 314 315 315 316 315 314 314 314 314 315 315 314 311 310 309 308 306 304
261 258 255 254 253 252 252 249 243 238 237 236 236 235 233 230 230 233 236 236 231 231 238 244 247 253 258 261 261 260 263 278 301 310 295 279 266 252 248 254 265 271 274 275 275 275 276 277 277 279 282 289 295 298 298 301 306 310 312 313 313 314 315 316 318 319 318 318 318 318 318 317 317 317 317 317 318 319 319 317 317 318 319 319 317
262 260 256 253 249 245 244 245 243 239 236 234 236 239 240 241 243 245 247 247 246 247 251 251 247 246 246 243 241 244 249 263 282 295 292 277 257 244 247 255 264 270 272 272 272 271 272 275 280 285 290 296 300 303 307 311 314 315 314 314 315 317 320 321 323 323 322 321 320 320 320 320 321 322 322 322 323 324 324 323 322 323 324 323 320
259 259 257 254 250 245 240 238 239 240 236 231 230 234 237 238 239 237 236 238 240 243 245 245 243 241 237 234 237 241 244 254 269 282 282 269 250 244 247 253 260 265 267 267 269 271 275 279 284 289 294 301 305 309 312 314 313 313 313 316 320 324 327 328 328 327 326 325 324 323 322 323 324 325 325 325 325 325 325 324 323 322 322 320 317
256 255 254 252 250 247 244 240 237 238 237 233 231 231 232 232 231 230 226 227 231 236 238 239 238 237 233 231 233 236 242 252 264 275 276 262 248 244 245 248 253 257 260 264 269 273 277 281 285 291 299 304 307 309 310 309 309 313 318 324 328 332 333 333 333 332 331 329 327 325 324 324 325 326 326 326 326 326 324 323 323 323 322 321 319
254 252 251 250 248 246 246 244 242 241 240 237 235 235 236 234 232 233 231 229 231 234 233 231 231 232 233 232 232 234 241 250 258 265 265 255 246 244 242 240 243 248 254 262 267 268 271 278 285 293 299 303 305 307 306 307 312 321 328 332 334 336 338 338 337 336 334 331 328 326 325 325 325 326 326 326 325 323 322 323 325 326 326 324 321
255 251 249 248 247 246 244 244 245 244 243 240 236 235 236 237 238 239 236 232 232 233 230 228 229 230 229 229 231 234 240 246 252 253 249 243 239 237 234 235 239 245 251 256 258 262 269 278 287 295 300 303 303 303 303 311 324 332 333 335 338 341 343 342 340 339 336 333 329 326 325 325 326 327 327 326 324 322 322 325 328 329 327 324 322
255 251 247 245 245 245 242 241 242 242 242 242 239 234 232 233 235 237 233 227 224 222 219 218 220 222 222 224 228 232 236 243 248 246 240 237 233 227 224 227 233 239 243 246 252 261 271 281 290 296 298 298 297 299 307 323 335 337 338 341 344 346 345 344 342 340 337 334 331 329 329 331 331 330 329 326 324 322 324 328 331 330 328 325 324
254 249 244 240 241 242 241 239 238 238 237 239 240 239 236 234 234 236 234 229 223 218 215 210 208 211 217 219 220 225 232 239 244 244 240 233 228 222 218 219 221 224 229 239 252 265 276 287 292 293 292 291 293 301 317 332 339 340 343 346 347 347 346 345 342 339 335 334 335 336 336 336 335 334 331 328 326 325 327 330 331 330 329 326 324
258 249 241 234 232 234 237 238 236 234 232 232 234 237 238 239 241 243 246 246 245 241 238 231 222 224 230 226 217 219 231 238 239 238 235 230 222 216 213 214 217 219 226 242 258 271 281 288 289 286 286 289 296 308 325 338 343 344 346 348 349 347 345 343 340 337 335 335 337 339 339 337 337 336 334 330 328 328 329 330 330 330 330 328 324
263 253 243 232 224 223 227 231 231 229 228 228 230 233 234 235 238 241 244 244 241 238 240 238 231 228 230 228 219 218 227 233 232 229 225 222 217 212 210 212 216 222 234 249 261 272 278 279 276 278 286 295 304 320 335 344 346 348 350 350 349 346 343 341 340 338 336 336 338 340 340 339 339 338 335 332 330 328 328 328 329 329 329 327 324
264 257 247 233 221 215 216 221 222 222 222 223 225 225 222 220 222 227 228 226 224 225 228 227 221 216 216 216 216 218 221 221 218 214 210 207 205 204 207 214 221 228 237 247 256 262 263 260 263 277 296 307 317 333 343 346 347 351 352 350 346 343 341 340 340 339 337 338 340 341 341 341 341 340 337 334 332 329 327 327 328 327 327 325 323
261 258 251 237 220 210 207 211 214 214 215 218 220 220 217 214 215 219 221 221 220 220 220 218 215 213 212 212 213 214 213 209 204 201 199 197 195 194 198 209 218 224 229 236 244 247 243 242 255 284 302 313 327 340 346 347 350 353 352 348 344 341 340 341 341 342 341 342 343 343 343 344 343 342 340 336 333 330 329 329 328 327 326 326 325
256 254 251 239 220 208 204 206 210 210 211 213 216 218 218 217 216 217 219 222 224 223 220 216 212 210 212 215 214 212 210 208 205 199 194 191 190 191 197 205 209 209 216 226 233 233 229 228 241 274 301 321 337 345 347 350 353 353 349 345 341 341 342 343 343 344 345 344 344 344 345 345 344 343 341 337 334 332 330 330 330 329 327 327 326
249 246 243 236 218 206 203 203 207 209 210 212 215 216 218 219 219 220 221 225 227 225 223 219 213 208 211 217 219 217 213 208 202 194 189 186 187 189 192 196 196 198 209 221 223 222 222 224 239 276 311 330 343 348 350 351 352 350 346 342 340 342 344 345 345 346 346 345 345 345 345 346 345 344 343 341 338 335 332 331 331 330 328 326 325
240 236 233 228 215 205 202 203 205 208 210 212 216 218 217 217 221 224 225 227 229 228 223 216 208 204 208 215 217 216 211 201 191 185 183 184 186 185 184 183 184 190 202 214 219 225 232 243 265 295 320 337 345 350 351 350 348 347 344 341 341 344 346 347 347 348 348 348 348 349 349 349 348 348 347 345 342 338 335 333 332 331 329 328 327
208 204 209 215 209 202 200 202 204 207 210 213 218 221 221 221 225 228 228 231 234 232 222 209 198 194 202 209 205 199 194 188 182 177 177 179 180 179 177 174 172 179 183 27 358 285 273 280 294 310 328 339 346 350 349 346 345 345 343 341 343 347 348 349 349 350 351 351 352 353 352 352 351 351 350 348 345 341 338 336 334 332 331 330 330
118 128 143 183 194 196 197 199 201 205 210 215 221 225 228 229 231 234 235 237 238 233 218 200 188 186 191 192 187 181 179 178 175 171 170 171 173 174 173 172 179 212 294 343 333 301 290 300 313 323 332 342 349 350 346 344 344 344 342 342 346 349 350 351 352 352 352 353 353 354 353 353 352 351 350 349 347 343 340 337 335 334 334 333 333
95 104 116 135 156 173 184 189 194 200 206 213 219 224 226 226 231 238 241 237 231 222 205 190 187 185 180 176 173 171 169 169 168 166 164 165 169 171 172 182 221 246 270 312 314 298 298 317 329 335 342 351 351 346 342 341 343 342 341 344 348 351 352 353 354 354 354 354 353 354 353 352 351 350 349 348 347 344 340 338 336 336 337 337 336
87 93 106 120 132 148 163 173 182 191 198 203 206 208 207 210 222 237 236 220 212 206 193 182 179 174 169 166 165 163 163 166 169 168 168 171 174 175 182 205 234 246 268 298 306 303 314 328 337 345 354 352 346 340 338 340 341 342 343 346 349 351 354 356 357 356 355 354 352 353 353 351 350 349 348 348 348 345 342 340 338 338 340 340 339
85 81 85 100 115 129 142 153 166 179 188 193 197 197 196 197 204 210 204 197 192 184 173 168 165 161 159 159 159 161 166 173 175 175 179 182 182 185 199 222 235 242 264 298 319 324 326 332 342 1 3 351 340 336 336 339 341 344 348 349 349 351 355 358 359 359 357 353 351 352 352 350 350 349 349 349 349 347 344 341 340 340 342 344 342
86 85 89 100 113 124 134 145 158 169 177 183 187 186 182 177 171 169 171 171 166 159 155 155 155 154 156 158 161 166 173 178 181 183 184 185 187 198 213 227 234 244 271 305 320 322 327 338 355 7 1 345 336 334 336 339 342 348 351 351 350 351 355 358 0 0 357 353 350 351 351 350 349 350 350 351 351 350 346 343 342 343 345 348 346
80 85 90 95 98 103 111 122 133 142 148 151 150 149 148 146 144 147 150 151 150 148 148 149 152 156 160 164 168 172 176 178 180 182 185 190 200 210 222 239 248 260 290 306 304 308 325 344 350 346 342 334 330 333 336 338 343 350 354 352 351 352 354 357 360 359 357 354 350 350 352 351 350 350 351 353 355 354 350 346 345 346 348 352 354
78 82 86 88 89 91 93 96 100 104 108 113 117 122 126 131 134 138 142 144 145 146 148 152 157 161 165 167 170 174 176 176 178 183 192 203 213 224 251 275 272 278 297 299 290 304 332 338 317 312 317 324 329 333 336 340 346 352 355 355 354 354 355 357 358 358 357 355 353 351 352 353 352 352 353 356 359 359 355 351 349 350 352 359 5
75 79 83 85 87 89 92 94 97 99 102 107 111 116 121 126 131 135 138 140 142 146 152 158 163 166 170 173 177 181 183 184 189 198 208 216 230 253 274 275 264 271 289 292 289 308 316 291 286 297 308 321 330 333 337 344 351 355 357 358 357 355 354 356 359 360 359 357 356 355 355 355 354 355 356 358 2 4 1 357 355 355 358 6 15
72 75 79 81 84 87 90 92 95 98 102 106 110 115 120 124 127 131 136 140 144 151 158 165 172 177 181 185 188 191 194 197 204 214 222 233 252 264 259 242 234 249 270 277 266 255 259 270 285 298 307 321 332 335 340 349 356 357 358 358 358 356 355 356 359 1 2 0 358 358 359 358 357 358 0 3 5 7 6 3 1 1 4 11 20